Location: Newark
(41.8922°N, 9.0050°E)
Time: 00:30:07
(UTC+00:00)

Envisat - Pass Details

Date: 24 January 2020
Orbit: 764 x 766 km, 98.1° (Epoch: 24 February)

Event Time Altitude Azimuth Distance (km) Brightness Sun altitude
Rises 05:09:40 0° 26° (NNE) 3,240 6.4 -17.5°
Reaches altitude 10° 05:12:23 10° 39° (NE) 2,309 5.8 -17.0°
Maximum altitude 05:16:31 25° 94° (E) 1,524 5.5 -16.3°
Drops below altitude 10° 05:20:37 10° 148° (SSE) 2,294 6.1 -15.5°
Sets 05:23:18 0° 162° (SSE) 3,215 6.7 -15.0°
